Hourly Weather San Luis

Today, 13 August, Thursday

Time Temperature Precipitation Wind Pressure Humidity
00:00 +7°C° 0 mm 4 mps 696 mmHg 24%
01:00 +6°C° 0 mm 4 mps 696 mmHg 24%
02:00 +6°C° 0 mm 4 mps 696 mmHg 23%
03:00 +6°C° 0 mm 4 mps 696 mmHg 23%
04:00 +6°C° 0 mm 4 mps 695 mmHg 23%
05:00 +5°C° 0 mm 4 mps 695 mmHg 23%
06:00 +6°C° 0 mm 4 mps 696 mmHg 23%
07:00 +6°C° 0 mm 4 mps 696 mmHg 23%
08:00 +8°C° 0 mm 3 mps 697 mmHg 24%
09:00 +11°C° 0 mm 3 mps 697 mmHg 21%
10:00 +13°C° 0 mm 3 mps 697 mmHg 17%
11:00 +16°C° 0 mm 3 mps 697 mmHg 14%
12:00 +17°C° 0 mm 3 mps 697 mmHg 13%
13:00 +18°C° 0 mm 2 mps 696 mmHg 12%
14:00 +19°C° 0 mm 2 mps 695 mmHg 11%
15:00 +19°C° 0 mm 2 mps 695 mmHg 12%
16:00 +19°C° 0 mm 2 mps 694 mmHg 12%
17:00 +19°C° 0 mm 3 mps 693 mmHg 13%
18:00 +17°C° 0 mm 2 mps 693 mmHg 15%
19:00 +14°C° 0 mm 2 mps 693 mmHg 18%
20:00 +10°C° 0 mm 2 mps 692 mmHg 21%
21:00 +10°C° 0 mm 2 mps 692 mmHg 21%
22:00 +10°C° 0 mm 3 mps 692 mmHg 21%
23:00 +10°C° 0 mm 4 mps 692 mmHg 20%

Tomorrow, 14 August, Friday

Time Temperature Precipitation Wind Pressure Humidity
00:00 +10°C° 0 mm 4 mps 691 mmHg 22%
01:00 +10°C° 0 mm 4 mps 691 mmHg 24%
02:00 +9°C° 0 mm 5 mps 691 mmHg 25%
03:00 +8°C° 0 mm 4 mps 691 mmHg 27%
04:00 +8°C° 0 mm 4 mps 691 mmHg 28%
05:00 +8°C° 0 mm 4 mps 691 mmHg 30%
06:00 +9°C° 0 mm 3 mps 691 mmHg 32%
07:00 +9°C° 0 mm 3 mps 692 mmHg 33%
08:00 +9°C° 0 mm 2 mps 693 mmHg 35%
09:00 +11°C° 0 mm 3 mps 694 mmHg 31%
10:00 +13°C° 0 mm 3 mps 695 mmHg 28%
11:00 +15°C° 0 mm 4 mps 695 mmHg 24%
12:00 +15°C° 0 mm 5 mps 696 mmHg 24%
13:00 +15°C° 0 mm 7 mps 696 mmHg 24%
14:00 +15°C° 0 mm 9 mps 696 mmHg 24%
15:00 +15°C° 0 mm 8 mps 696 mmHg 24%
16:00 +14°C° 0 mm 7 mps 696 mmHg 24%
17:00 +14°C° 0 mm 7 mps 696 mmHg 24%
18:00 +11°C° 0 mm 6 mps 696 mmHg 24%
19:00 +10°C° 0 mm 6 mps 696 mmHg 25%
20:00 +8°C° 0 mm 5 mps 696 mmHg 25%
21:00 +8°C° 0 mm 5 mps 696 mmHg 26%
22:00 +7°C° 0 mm 5 mps 696 mmHg 26%
23:00 +7°C° 0 mm 4 mps 696 mmHg 27%

Day after tomorrow, 15 August, Saturday

Time Temperature Precipitation Wind Pressure Humidity
00:00 +6°C° 0 mm 4 mps 696 mmHg 29%
01:00 +7°C° 0 mm 3 mps 696 mmHg 31%
02:00 +7°C° 0 mm 3 mps 695 mmHg 33%
03:00 +7°C° 0 mm 3 mps 695 mmHg 35%
04:00 +5°C° 0 mm 3 mps 695 mmHg 36%
05:00 +5°C° 0 mm 3 mps 694 mmHg 38%
06:00 +7°C° 0 mm 2 mps 694 mmHg 39%
07:00 +7°C° 0 mm 2 mps 695 mmHg 39%
08:00 +8°C° 0 mm 2 mps 695 mmHg 39%
09:00 +10°C° 0 mm 2 mps 696 mmHg 34%
10:00 +13°C° 0 mm 2 mps 696 mmHg 30%
11:00 +14°C° 0 mm 3 mps 697 mmHg 25%
12:00 +16°C° 0 mm 3 mps 697 mmHg 23%
13:00 +15°C° 0 mm 4 mps 698 mmHg 21%
14:00 +16°C° 0 mm 5 mps 698 mmHg 20%
15:00 +15°C° 0 mm 6 mps 698 mmHg 21%
16:00 +12°C° 0 mm 7 mps 698 mmHg 22%
17:00 +10°C° 0 mm 9 mps 698 mmHg 22%
18:00 +9°C° 0 mm 8 mps 698 mmHg 26%
19:00 +6°C° 0 mm 7 mps 699 mmHg 30%
20:00 +4°C° 0 mm 6 mps 699 mmHg 33%
21:00 +4°C° 0 mm 6 mps 700 mmHg 34%
22:00 +5°C° 0 mm 5 mps 700 mmHg 34%
23:00 +4°C° 0 mm 4 mps 700 mmHg 35%

16 August, Sunday

Time Temperature Precipitation Wind Pressure Humidity
00:00 +4°C° 0 mm 4 mps 700 mmHg 35%
01:00 +4°C° 0 mm 3 mps 700 mmHg 35%
02:00 +3°C° 0 mm 3 mps 700 mmHg 35%
03:00 +3°C° 0 mm 3 mps 699 mmHg 36%
04:00 +4°C° 0 mm 2 mps 699 mmHg 36%
05:00 +4°C° 0 mm 2 mps 698 mmHg 37%
06:00 +5°C° 0 mm 2 mps 698 mmHg 36%
07:00 +5°C° 0 mm 3 mps 698 mmHg 34%
08:00 +7°C° 0 mm 3 mps 699 mmHg 33%
09:00 +8°C° 0 mm 4 mps 699 mmHg 30%
10:00 +12°C° 0 mm 5 mps 699 mmHg 27%
11:00 +14°C° 0 mm 6 mps 699 mmHg 24%
12:00 +15°C° 0 mm 6 mps 699 mmHg 23%
13:00 +16°C° 0 mm 6 mps 698 mmHg 23%
14:00 +17°C° 0 mm 5 mps 698 mmHg 23%
15:00 +17°C° 0 mm 5 mps 697 mmHg 24%
16:00 +16°C° 0 mm 5 mps 697 mmHg 24%
17:00 +17°C° 0 mm 4 mps 696 mmHg 25%
18:00 +14°C° 0 mm 4 mps 696 mmHg 30%
19:00 +12°C° 0 mm 4 mps 696 mmHg 35%
20:00 +10°C° 0 mm 3 mps 696 mmHg 39%
21:00 +10°C° 0 mm 3 mps 697 mmHg 41%
22:00 +9°C° 0 mm 3 mps 697 mmHg 43%
23:00 +8°C° 0 mm 2 mps 697 mmHg 45%

17 August, Monday

Time Temperature Precipitation Wind Pressure Humidity
00:00 +8°C° 0 mm 2 mps 697 mmHg 46%
01:00 +8°C° 0 mm 2 mps 696 mmHg 47%
02:00 +7°C° 0 mm 2 mps 696 mmHg 49%
03:00 +7°C° 0 mm 2 mps 696 mmHg 49%
04:00 +7°C° 0 mm 3 mps 696 mmHg 50%
05:00 +7°C° 0 mm 3 mps 695 mmHg 51%
06:00 +8°C° 0 mm 3 mps 695 mmHg 49%
07:00 +8°C° 0 mm 4 mps 696 mmHg 47%
08:00 +10°C° 0 mm 4 mps 696 mmHg 46%
09:00 +12°C° 0 mm 5 mps 696 mmHg 40%
10:00 +15°C° 0 mm 6 mps 696 mmHg 34%
11:00 +17°C° 0 mm 6 mps 696 mmHg 28%
12:00 +19°C° 0 mm 6 mps 695 mmHg 26%
13:00 +20°C° 0 mm 7 mps 694 mmHg 25%
14:00 +20°C° 0 mm 7 mps 693 mmHg 23%
15:00 +20°C° 0 mm 7 mps 692 mmHg 24%
16:00 +20°C° 0 mm 6 mps 692 mmHg 24%
17:00 +19°C° 0 mm 6 mps 691 mmHg 25%
18:00 +16°C° 0 mm 6 mps 690 mmHg 31%
19:00 +15°C° 0 mm 5 mps 690 mmHg 36%
20:00 +13°C° 0 mm 5 mps 690 mmHg 41%
21:00 +13°C° 0 mm 5 mps 690 mmHg 42%
22:00 +13°C° 0 mm 5 mps 690 mmHg 42%
23:00 +13°C° 0 mm 6 mps 690 mmHg 42%

18 August, Tuesday

Time Temperature Precipitation Wind Pressure Humidity
00:00 +11°C° 0 mm 6 mps 690 mmHg 42%
01:00 +11°C° 0 mm 6 mps 690 mmHg 42%
02:00 +11°C° 0 mm 6 mps 690 mmHg 43%
03:00 +10°C° 0 mm 7 mps 690 mmHg 42%
04:00 +7°C° 0 mm 8 mps 691 mmHg 41%
05:00 +6°C° 0 mm 9 mps 691 mmHg 41%
06:00 +5°C° 0 mm 9 mps 692 mmHg 43%
07:00 +3°C° 0 mm 10 mps 693 mmHg 45%
08:00 +2°C° 0 mm 10 mps 694 mmHg 47%
09:00 +2°C° 0 mm 10 mps 695 mmHg 46%
10:00 +2°C° 0 mm 10 mps 696 mmHg 46%
11:00 +2°C° 0 mm 10 mps 697 mmHg 45%
12:00 +2°C° 0.2 mm 10 mps 697 mmHg 44%
13:00 +2°C° 0.2 mm 9 mps 697 mmHg 44%
14:00 +2°C° 0.2 mm 9 mps 697 mmHg 43%
15:00 +3°C° 0 mm 9 mps 697 mmHg 36%
16:00 +5°C° 0 mm 9 mps 697 mmHg 29%
17:00 +5°C° 0 mm 9 mps 697 mmHg 22%
18:00 +4°C° 0 mm 8 mps 698 mmHg 24%
19:00 +3°C° 0 mm 7 mps 699 mmHg 25%
20:00 +2°C° 0 mm 6 mps 699 mmHg 26%
21:00 +2°C° 0 mm 5 mps 700 mmHg 30%
22:00 +1°C° 0 mm 4 mps 701 mmHg 33%
23:00 0°C° 0 mm 4 mps 702 mmHg 36%
Show more